Weather History for Lexington, NE

Change the Weather History Date:

Monday, January 20, 2014

  Actual Average Record
Temperature  
Mean Temperature 29 °F -  
Max Temperature 48 °F 37 °F 64 °F (1997)
Min Temperature 10 °F 14 °F -6 °F (2011)
Degree Days  
Heating Degree Days 36    
Moisture  
Dew Point 14 °F    
Average Humidity 53    
Maximum Humidity 75    
Minimum Humidity 25    
Precipitation  
Precipitation 0.00 in - - ()
Sea Level Pressure  
Sea Level Pressure 30.14 in    
Wind  
Wind Speed 13 mph (NNW)    
Max Wind Speed 38 mph    
Max Gust Speed 47 mph    
Visibility 10 miles    
Events      
Averages and records for this station are not official NWS values.
T = Trace of Precipitation, MM = Missing Value Source: NWS Daily Summary

Daily Weather History Graph

Daily Weather History Graph

Search for Another Location

Airport:

Trip Planner

Search our weather history database for the weather conditions in past years. The results will help you decide how hot, cold, wet, or windy it might be!

Date:

Astronomy

Jan. 20, 2014 Rise Set
Actual Time 7:58 AM CST 5:42 PM CST
Civil Twilight 7:28 AM CST 6:11 PM CST
Nautical Twilight 6:55 AM CST 6:45 PM CST
Astronomical Twilight 6:22 AM CST 7:18 PM CST
Moon 10:20 PM CST 9:57 AM CST
Length of Visible Light 10h 43m
Length of Day
9h 43m
Waning Gibbous, 82% of the Moon is Illuminated
Jan 20
Waning Gibbous
Jan 23
Last Quarter
Jan 30
New
Feb 6
First Quarter
Feb 14
Full

Hourly Weather History & Observations

Time (CST) Temp. Windchill Dew Point Humidity Pressure Visibility Wind Dir Wind Speed Gust Speed Precip Events Conditions
12:15 AM 28.9 °F 21.9 °F 15.3 °F 57% 29.88 in 10.0 mi WNW 6.9 mph - N/A   Clear
12:35 AM 27.7 °F 20.4 °F 15.3 °F 60% 29.89 in 10.0 mi WNW 6.9 mph - N/A   Clear
12:55 AM 26.1 °F 16.8 °F 14.7 °F 62% 29.89 in 10.0 mi WNW 9.2 mph - N/A   Clear
1:15 AM 26.4 °F 18.9 °F 14.9 °F 62% 29.88 in 10.0 mi WNW 6.9 mph - N/A   Clear
1:35 AM 26.1 °F 20.5 °F 15.4 °F 64% 29.86 in 10.0 mi West 4.6 mph - N/A   Clear
1:55 AM 22.8 °F 15.5 °F 13.3 °F 67% 29.88 in 10.0 mi NW 5.8 mph - N/A   Clear
2:15 AM 22.5 °F 13.2 °F 13.6 °F 69% 29.89 in 10.0 mi NNW 8.1 mph - N/A   Clear
2:35 AM 22.1 °F 14.7 °F 13.1 °F 68% 29.89 in 10.0 mi NW 5.8 mph - N/A   Clear
2:55 AM 23.0 °F 18.4 °F 14.4 °F 70% 29.90 in 10.0 mi West 3.5 mph - N/A   Clear
3:15 AM 21.6 °F 16.8 °F 13.6 °F 72% 29.90 in 10.0 mi WNW 3.5 mph - N/A   Clear
3:35 AM 20.7 °F 14.2 °F 12.4 °F 70% 29.92 in 10.0 mi NNW 4.6 mph - N/A   Clear
3:55 AM 18.5 °F 11.7 °F 11.7 °F 75% 29.92 in 10.0 mi North 4.6 mph - N/A   Clear
4:15 AM 20.8 °F 11.2 °F 13.8 °F 74% 29.94 in 10.0 mi West 8.1 mph - N/A   Clear
4:35 AM 22.1 °F 12.8 °F 14.5 °F 73% 29.94 in 10.0 mi West 8.1 mph - N/A   Clear
4:55 AM 22.1 °F 11.3 °F 14.9 °F 74% 29.94 in 10.0 mi WNW 10.4 mph - N/A   Clear
5:15 AM 21.4 °F 11.1 °F 14.5 °F 75% 29.96 in 10.0 mi West 9.2 mph - N/A   Clear
5:35 AM 21.7 °F 10.8 °F 14.9 °F 75% 29.97 in 10.0 mi WNW 10.4 mph - N/A   Clear
5:55 AM 22.5 °F 14.1 °F 15.1 °F 73% 29.98 in 10.0 mi West 6.9 mph - N/A   Clear
6:15 AM 22.6 °F 12.6 °F 15.4 °F 74% 29.99 in 10.0 mi West 9.2 mph - N/A   Clear
6:35 AM 23.2 °F 13.3 °F 16.2 °F 75% 30.01 in 10.0 mi West 9.2 mph - N/A   Clear
6:55 AM 26.2 °F 17.8 °F 18.0 °F 71% 30.02 in 10.0 mi WNW 8.1 mph - N/A   Clear
7:15 AM 32.5 °F 24.2 °F 21.2 °F 63% 30.04 in 10.0 mi NNW 10.4 mph - N/A   Clear
7:35 AM 35.2 °F 26.2 °F 21.0 °F 56% 30.05 in 10.0 mi North 13.8 mph - N/A   Clear
7:55 AM 35.4 °F 27.3 °F 21.0 °F 56% 30.06 in 10.0 mi NNW 11.5 mph - N/A   Clear
8:15 AM 35.8 °F 28.3 °F 21.0 °F 55% 30.06 in 10.0 mi NW 10.4 mph - N/A   Clear
8:35 AM 37.8 °F 29.4 °F 20.7 °F 50% 30.08 in 10.0 mi NNW 13.8 mph - N/A   Clear
8:55 AM 37.6 °F 29.6 °F 20.5 °F 50% 30.10 in 10.0 mi NNW 12.7 mph - N/A   Clear
9:15 AM 38.5 °F 31.1 °F 20.8 °F 49% 30.11 in 10.0 mi NNW 11.5 mph - N/A   Scattered Clouds
9:35 AM 40.5 °F 34.1 °F 21.2 °F 46% 30.11 in 10.0 mi NNW 10.4 mph - N/A   Mostly Cloudy
9:55 AM 43.2 °F 34.0 °F 19.8 °F 39% 30.12 in 10.0 mi NNW 23.0 mph 27.6 mph N/A   Mostly Cloudy
10:15 AM 44.6 °F 34.9 °F 18.0 °F 34% 30.11 in 10.0 mi North 28.8 mph 36.8 mph N/A   Scattered Clouds
10:35 AM 43.7 °F 33.5 °F 17.2 °F 35% 30.13 in 10.0 mi North 29.9 mph 34.5 mph N/A   Scattered Clouds
10:55 AM 43.0 °F 33.5 °F 17.4 °F 36% 30.15 in 10.0 mi NNW 24.2 mph 34.5 mph N/A   Scattered Clouds
11:15 AM 42.1 °F 33.3 °F 17.8 °F 38% 30.16 in 10.0 mi NNW 19.6 mph - N/A   Clear
11:40 AM 45.5 °F 37.1 °F 18.3 °F 34% 30.16 in 10.0 mi NNW 23.0 mph 33.4 mph N/A   Clear
11:55 AM 46.2 °F 37.7 °F 18.3 °F 33% 30.16 in 10.0 mi NNW 25.3 mph 32.2 mph N/A   Clear
12:15 PM 47.1 °F - 18.3 °F 32% 30.15 in 10.0 mi NW 21.9 mph 33.4 mph N/A   Clear
12:40 PM 47.8 °F - 18.3 °F 31% 30.14 in 10.0 mi NW 23.0 mph 34.5 mph N/A   Clear
12:55 PM 48.6 °F - 17.6 °F 29% 30.14 in 10.0 mi NW 24.2 mph 33.4 mph N/A   Clear
1:20 PM 48.6 °F - 16.3 °F 28% 30.14 in 10.0 mi NW 31.1 mph 40.3 mph N/A   Clear
1:35 PM 48.7 °F - 14.9 °F 26% 30.14 in 10.0 mi NNW 28.8 mph 42.6 mph N/A   Clear
1:55 PM 48.6 °F - 14.9 °F 26% 30.13 in 10.0 mi NNW 35.7 mph 43.7 mph N/A   Clear
2:15 PM 48.4 °F - 13.6 °F 25% 30.13 in 10.0 mi NNW 38.0 mph 47.2 mph N/A   Clear
2:35 PM 48.6 °F - 14.0 °F 25% 30.15 in 10.0 mi NNW 34.5 mph 44.9 mph N/A   Clear
2:55 PM 47.7 °F - 14.7 °F 27% 30.15 in 10.0 mi NNW 29.9 mph 46.0 mph N/A   Clear
3:15 PM 46.4 °F 36.7 °F 14.5 °F 28% 30.17 in 10.0 mi North 33.4 mph 42.6 mph N/A   Clear
3:35 PM 45.7 °F 35.4 °F 14.4 °F 28% 30.19 in 10.0 mi NNW 35.7 mph 42.6 mph N/A   Clear
3:55 PM 44.6 °F 34.7 °F 15.4 °F 31% 30.20 in 10.0 mi NNW 29.9 mph 42.6 mph N/A   Clear
4:15 PM 43.9 °F 34.5 °F 16.5 °F 33% 30.20 in 10.0 mi North 25.3 mph 41.4 mph N/A   Clear
4:35 PM 41.9 °F 30.7 °F 18.1 °F 38% 30.23 in 10.0 mi NNW 32.2 mph 42.6 mph N/A   Clear
4:55 PM 39.4 °F 27.5 °F 19.2 °F 44% 30.24 in 10.0 mi NNW 31.1 mph 43.7 mph N/A   Scattered Clouds
5:15 PM 37.9 °F 25.5 °F 18.3 °F 45% 30.26 in 10.0 mi NNW 31.1 mph 40.3 mph N/A   Scattered Clouds
5:35 PM 33.6 °F 21.1 °F 16.7 °F 50% 30.27 in 10.0 mi North 24.2 mph 34.5 mph N/A   Clear
5:55 PM 32.0 °F 19.5 °F 15.8 °F 51% 30.28 in 10.0 mi North 21.9 mph 33.4 mph N/A   Clear
6:15 PM 31.1 °F 18.9 °F 15.6 °F 53% 30.29 in 10.0 mi North 19.6 mph 26.5 mph N/A   Clear
6:35 PM 29.7 °F 17.8 °F 14.9 °F 54% 30.31 in 10.0 mi North 17.3 mph 21.9 mph N/A   Clear
6:55 PM 28.9 °F 18.2 °F 13.8 °F 53% 30.32 in 10.0 mi North 13.8 mph 23.0 mph N/A   Clear
7:15 PM 27.1 °F 13.8 °F 12.6 °F 54% 30.33 in 10.0 mi North 19.6 mph 25.3 mph N/A   Clear
7:35 PM 25.3 °F 12.2 °F 11.3 °F 55% 30.35 in 10.0 mi North 17.3 mph 27.6 mph N/A   Clear
7:55 PM 23.9 °F 9.1 °F 10.8 °F 57% 30.36 in 10.0 mi North 20.7 mph 26.5 mph N/A   Clear
8:15 PM 22.1 °F 7.2 °F 9.5 °F 58% 30.37 in 10.0 mi North 19.6 mph 25.3 mph N/A   Clear
8:40 PM 20.5 °F 6.4 °F 8.4 °F 60% 30.37 in 10.0 mi North 16.1 mph 26.5 mph N/A   Clear
8:55 PM 19.4 °F 6.0 °F 7.5 °F 60% 30.39 in 10.0 mi North 13.8 mph 24.2 mph N/A   Clear
9:15 PM 17.8 °F 5.2 °F 6.8 °F 62% 30.40 in 10.0 mi North 11.5 mph - N/A   Clear
9:35 PM 16.7 °F 3.8 °F 5.9 °F 63% 30.42 in 10.0 mi North 11.5 mph 17.3 mph N/A   Clear
9:55 PM 14.9 °F 2.3 °F 5.4 °F 66% 30.42 in 10.0 mi North 10.4 mph - N/A   Scattered Clouds
10:15 PM 14.5 °F 1.1 °F 5.0 °F 66% 30.42 in 10.0 mi North 11.5 mph - N/A   Clear
10:35 PM 14.0 °F -0.8 °F 4.6 °F 66% 30.43 in 10.0 mi North 13.8 mph - N/A   Clear
10:55 PM 13.1 °F -0.7 °F 4.1 °F 67% 30.43 in 10.0 mi North 11.5 mph - N/A   Clear
11:15 PM 11.7 °F 0.0 °F 3.2 °F 69% 30.44 in 10.0 mi North 8.1 mph - N/A   Clear
11:35 PM 10.2 °F -0.6 °F 2.8 °F 72% 30.44 in 10.0 mi North 6.9 mph - N/A   Clear
11:55 PM 10.2 °F -4.3 °F 2.5 °F 71% 30.44 in 10.0 mi North 11.5 mph - N/A   Clear